{"data":{"norad_id":65425,"epoch":"2026-05-24T23:34:21.883008Z","epoch_age_seconds":72480,"freshness":"FRESH","line1":"1 65425U 25192X   26144.98219772  .00017902  00000+0  58707-3 0  9991","line2":"2 65425  53.1600 238.0693 0001228  82.6260 277.4881 15.31709957 41062","mean_motion":15.31709957,"eccentricity":0.0001228,"inclination_deg":53.16,"raan_deg":238.0693,"arg_perigee_deg":82.626,"mean_anomaly_deg":277.4881,"bstar":0.00058707,"rev_number":4106,"period_min":94.012576821031,"perigee_km":469.86927563739,"apogee_km":471.55135253773,"semimajor_km":6848.8473140876,"source":"CELESTRAK","updated_at":"2026-05-25T13:38:20.803795Z"}}